Notices

What's New in latest Release from April 7th, 2021:

- Updated Glossary, including Speed of Maximum Gust, and Total Hourly Precipitation

- Updated national and regional climate services offices contacts and prices information

- Addition of station inventory lists for 1981-2010, 1971-2000, and 1961-1990 Normals.

If you haven't already, please take our survey and provide feedback about our website: https://eccc.sondage-survey.ca/f/LanguageSelection.aspx?s=442ca660-fcf1-47c0-95a9-59707d6fd709

Hourly Data Report for October 24, 2020

MUSKOKA
ONTARIO
Current Station Operator: NAVCAN

44°58'29.000" N
79°18'12.000" W
281.90 m
6115529
71532
YQA

Download Data

Hourly Data (October 2020)
Hourly Data Report for October 24, 2020
TIME
LST
Temp Definition
°C
Dew Point Definition
°C
Rel Hum Definition
%
Precip. Amount Definition
mm

Wind Dir Definition
10's deg

Wind Spd Definition
km/h
Visibility Definition
km
Stn Press Definition
kPa
Hmdx Definition


Wind Chill Definition


Weather Definition


00:00 5.7 4.8 94 0.0 29 26 4.8 97.73     Rain,Fog
01:00 4.8 2.7 86 0.0 30 28 16.1 97.82     LegendNANA
02:00 3.7 1.4 85 0.0 30 17 16.1 97.94     LegendNANA
03:00 2.7 0.4 85 0.0 30 18 16.1 98.05     LegendNANA
04:00 1.6 0.6 93 0.0 31 22 14.5 98.19     LegendNANA
05:00 1.3 0.3 93 0.0 32 18 16.1 98.32     LegendNANA
06:00 1.1 -0.2 91 0.0 32 18 16.1 98.43     Rain
07:00 0.8 -0.7 90 0.0 31 13 16.1 98.52     LegendNANA
08:00 1.2 -0.4 89 0.0 32 13 16.1 98.64     LegendNANA
09:00 0.8 -0.6 91 0.0 31 15 4.8 98.75     Snow
10:00 1.8 -0.5 85 0.0 31 8 16.1 98.74     LegendNANA
11:00 3.8 -1.2 70 0.0 32 13 16.1 98.75     LegendNANA
12:00 3.3 -1.2 72 0.0 33 17 16.1 98.79     LegendNANA
13:00 3.7 -1.8 68 0.0 30 13 16.1 98.74     LegendNANA
14:00 3.8 -1.4 69 0.0 28 13 16.1 98.74     LegendNANA
15:00 3.9 -1.2 70 0.0 30 11 16.1 98.73     LegendNANA
16:00 3.2 -2.2 68 0.0 30 9 16.1 98.79     LegendNANA
17:00 2.8 -2.7 67 0.0 32 13 16.1 98.81     LegendNANA
18:00 2.3 -2.3 72 0.0 32 11 16.1 98.83     LegendNANA
19:00 2.0 -2.1 74 0.0 31 9 16.1 98.89     LegendNANA
20:00 1.5 -1.9 78 0.0 33 13 16.1 98.92     LegendNANA
21:00 1.0 -2.4 78 0.0 34 8 16.1 98.91     LegendNANA
22:00 0.7 -2.5 79 0.0 LegendMM 4 16.1 98.99     LegendNANA
23:00 0.4 -2.5 81 0.0 33 5 16.1 99.02     LegendNANA

Notes on Data Quality.

Legend

  • E = Estimated
  • M = Missing
  • NA = Not Available*
  • [empty] = Indicates an unobserved value
Date modified: